Showing default

EXPRESS MD2, 38745

Orbit data source: Space-Track

EXPRESS MD2, 38745 is a payload satellite owned by KosSvyaz (CIS) in LEO that was launched on Mon, 06 Aug 2012 UTC via a PROTON-M/BRIZ-M launch vehicle from the Tyuratam Missile And Space Complex (TTMTR). Payload-class satellites include a variety of spacecraft equipped with specific instruments for various scientific and technological missions. These include communications satellites like Starlink; space stations such as the ISS; scientific satellites like the Hubble; Earth observation satellites from companies like Planet Labs, Umbra, and HawkEye 360; GPS; miniature CubeSats for education and research; and military/defense satellites.

Loading next visibility...
Identifier
38745, 2012-044B
Orbit
LEO
Country
Flag of CISCIS
Related business
Manufacturer
Khrunichev
Mission
Partially operational Commercial Communications
Bus & Motor
KAZSAT, Unknown motor
Mass
1,140 kg wet, ~1,000 kg dry
Launch date (UTC)
2012-08-06 (13 years ago)
Launch vehicle
PROTON-M/BRIZ-M
Launch site
Tyuratam Missile And Space Complex (TTMTR)
Object type
Payload
Rocket body
Debris
Shape & HBR
Box + 2 Pan, 3.5 m
Radar Cross Section
10.694 m², Large (>1 m²)

Expand to show TLE details & history
Last TLE update: 13 hours ago

TLE from 13 hours ago
0 EXPRESS MD2
1 38745U 12044B   25299.38550450  .00036464  40708-5  66414-3 0  9996
2 38745  49.8412  89.8316 1662504 268.2479  72.8099 12.22622663531943
Epoch: 2025-10-26T09:15Z
TLE epoch observation values (Epoch: 2025-10-26T09:15:07.588Z)
Latitude
-0.00008°
Longitude
-83.95254°
Altitude
1,403.132 km
Speed
7.239 km/s
True Right ascension
05h 59m 19s
True Declination
0° 00' 00"
Sunlit
Object was in daylight at epoch
Visualization orbit readout
Latitude
Unknown
Longitude
Unknown
Altitude
Unknown
Speed
Unknown
Apparent Right ascension
Unknown
Apparent Declination
Unknown
Sunlit
N/A
Visualization observer readout
Local Sidereal Time
17:54:21
Azimuth
Unknown
Elevation
Unknown
Doppler factor
Unknown
Orbital elements
Apogee altitude
2,905.211 km
Perigee altitude
258.506 km
Semi-major axis
7,959.995 km
Eccentricity
0.16625
Inclination
49.8412°
RAAN
89.8316°
Arg. of periapsis
268.2479°
True anomaly
91.83892°
Mean anomaly
72.8099°
Eccentric anomaly
82.2483°
Mean motion
3.05614 °/min
Orbital period
117.8 mins
BSTAR
0.00066414
Loading maneuver chart data...
Computing Atmospheric mass density...

Documentation

Showing up to 5 results
|